Temperature
17 17 17 18 18 18 18 18 18 18 18 18 18 18 18 18 18 18 18 18 18 18 18 18 18 18 18 18 18 18 18 18 18 18 18 18 18 18 18 18 18 18 18
18 17 17 18 18 18 18 18 18 18 18 17 17 18 18 18 18 18 18 18 18 18 18 18 18 18 18 18 18 18 18 18 18 18 18 18 18 18 18 18 18 18 18
18 18 18 18 18 17 17 17 17 17 17 17 17 17 17 17 18 18 18 18 17 17 18 18 18 18 18 18 18 18 18 18 18 18 18 18 18 18 18 18 18 18 18
18 18 18 18 18 17 17 17 17 17 17 17 17 17 17 17 17 17 17 17 17 17 17 17 17 17 17 18 17 17 18 18 18 17 17 18 18 18 18 18 18 18 18
18 18 18 18 18 17 17 17 17 17 17 17 17 17 17 17 17 17 17 17 17 17 17 17 17 17 17 17 17 17 17 17 17 17 17 17 17 17 17 17 17 17 17
18 18 18 18 18 17 17 17 17 17 17 17 17 17 17 17 17 17 17 17 17 17 17 17 17 17 17 17 17 17 17 17 17 17 17 17 17 17 17 17 17 17 17
18 18 18 18 18 17 17 17 17 17 17 17 17 17 17 17 17 17 17 17 17 17 17 17 17 17 17 17 17 17 17 17 17 17 17 17 17 17 17 17 17 17 17
18 18 18 18 18 17 17 17 17 17 17 17 17 17 17 17 17 17 17 17 17 17 17 17 17 17 17 17 17 17 17 17 17 17 17 16 17 17 17 17 17 17 17
18 18 18 18 17 17 17 17 17 17 17 17 17 17 17 17 17 17 17 17 16 16 16 16 16 16 16 16 16 16 16 16 16 16 16 16 16 16 17 17 17 17 17
18 18 18 18 17 17 17 17 17 17 17 17 17 16 16 16 16 16 16 16 16 16 16 16 16 16 16 16 16 16 16 16 16 16 16 16 16 16 16 16 16 16 16
18 18 18 18 17 17 17 17 17 17 17 17 17 16 16 16 16 16 16 16 16 16 16 16 16 16 16 16 16 16 16 16 16 16 16 16 16 16 16 16 16 16 16
18 18 18 18 17 17 17 17 17 17 17 17 16 16 16 16 16 16 16 16 16 16 16 16 16 16 16 16 16 16 16 16 16 16 16 16 16 16 16 16 16 16 16
19 18 18 18 18 17 17 17 17 17 17 16 16 16 16 16 16 16 16 16 16 16 16 15 15 15 15 16 16 16 16 15 15 15 15 15 15 15 15 15 15 15 15
19 18 18 18 18 17 17 17 17 17 17 17 16 16 16 16 16 16 16 16 16 15 15 15 15 15 15 15 15 15 15 15 15 15 15 15 15 15 15 15 15 15 15
19 19 18 18 18 18 17 17 17 17 17 17 16 16 16 16 16 16 16 16 16 15 15 15 15 15 15 15 15 15 15 15 15 15 15 15 15 15 15 15 15 15 15
19 19 18 18 18 18 17 17 17 17 17 17 16 16 16 16 16 16 16 16 15 15 15 15 15 15 15 15 15 15 15 15 15 15 15 15 15 15 15 15 15 15 15
19 19 19 18 18 18 18 17 17 17 17 17 16 16 16 16 16 16 16 15 15 15 15 15 15 15 15 15 15 14 14 14 14 14 15 15 15 15 15 15 14 14 14
19 19 19 18 18 18 18 17 17 17 17 17 16 16 16 16 16 16 16 15 15 15 15 15 15 15 14 15 14 14 14 14 14 14 14 14 14 14 14 14 14 14 14
19 19 19 18 18 18 18 17 17 17 17 16 16 16 16 16 16 16 16 15 15 15 15 15 15 14 14 14 14 14 14 14 14 14 14 14 14 14 14 14 14 14 14
19 19 19 18 18 18 17 17 17 17 17 16 16 16 16 16 16 16 15 15 15 15 15 15 14 14 14 14 14 14 14 14 14 14 14 14 14 14 14 14 14 14 14
19 19 19 18 18 18 17 17 17 17 17 16 16 16 16 16 16 15 15 15 15 15 15 14 14 14 14 14 14 14 14 14 14 14 14 14 14 14 14 14 14 14 13
19 19 19 18 18 18 17 17 17 17 17 16 16 16 16 16 15 15 15 15 15 15 15 14 14 14 14 14 14 14 13 13 13 13 13 13 13 14 14 14 13 13 13
19 19 19 18 18 18 17 17 17 17 16 16 16 16 16 15 15 15 15 15 15 15 14 14 14 14 14 14 14 14 13 13 13 13 13 13 13 13 13 13 13 13 13
19 19 18 18 18 17 17 17 17 17 16 16 16 16 15 15 15 15 15 15 15 14 14 14 14 14 14 14 14 14 14 14 13 13 13 13 13 13 13 13 13 13 13
19 19 18 18 18 17 17 17 17 16 16 16 16 15 15 15 15 15 15 15 15 14 14 14 14 14 14 14 14 14 14 13 13 13 12 12 13 13 13 13 13 13 13
19 19 18 18 17 17 17 17 16 16 16 16 15 15 15 15 15 15 14 14 14 14 14 14 14 14 14 14 14 14 14 14 13 13 13 12 12 12 12 12 12 13 13
Wind_Speed
0 1 4 5 5 5 6 6 7 7 7 8 8 8 8 9 9 9 9 9 8 8 9 9 8 9 9 8 8 7 7 7 8 8 8 8 8 8 8 8 7 6 8
4 3 5 6 6 6 6 7 7 8 8 8 9 9 9 9 8 8 8 9 8 8 8 9 8 9 9 8 8 7 7 7 7 8 8 8 8 8 7 7 7 6 7
5 4 5 6 7 7 7 8 8 9 9 9 9 9 9 9 8 8 8 8 8 8 9 9 9 9 9 9 9 9 9 9 8 7 7 6 6 7 8 8 8 8 7
6 5 6 7 7 7 7 8 8 8 9 9 9 9 9 9 9 8 8 8 8 9 9 9 9 9 9 9 9 10 10 9 8 7 6 5 5 7 7 8 7 7 7
6 6 6 7 7 7 8 8 8 8 8 8 9 9 9 9 8 8 8 9 9 9 9 9 10 9 9 9 9 9 9 8 8 8 6 6 5 6 7 7 7 6 6
5 6 7 8 8 8 8 8 8 9 9 9 9 9 9 9 8 8 9 9 10 9 9 9 9 9 9 9 9 9 9 9 8 7 6 5 5 6 7 7 7 7 6
5 5 7 8 8 8 8 8 8 9 9 9 9 9 9 9 9 9 9 9 10 10 9 9 9 9 9 9 9 9 9 10 8 6 5 4 5 6 6 7 7 7 6
7 5 6 8 8 8 8 8 8 9 10 10 10 10 10 9 9 9 9 9 9 9 9 9 9 9 9 8 8 8 9 8 7 6 5 4 6 6 6 6 6 6 6
6 5 5 6 7 7 8 8 9 9 9 9 9 10 10 9 9 10 9 9 9 9 8 8 8 8 8 9 9 9 9 8 6 5 5 4 6 7 7 7 7 7 7
5 5 4 5 5 5 5 7 8 8 8 8 8 8 8 8 9 9 8 8 8 8 7 7 7 7 8 9 9 10 9 8 6 5 4 4 6 7 7 7 7 7 6
5 4 4 4 5 5 4 5 6 6 6 7 6 7 6 6 6 6 7 7 7 7 7 7 7 8 8 8 9 9 8 6 6 5 4 5 6 7 7 7 7 6 6
5 5 4 5 4 5 4 4 3 3 4 5 5 4 4 5 4 5 6 7 7 6 7 8 9 8 7 7 7 7 6 6 5 4 5 6 7 7 6 6 6 6 5
6 6 5 5 5 5 3 4 3 3 3 4 4 5 5 5 4 4 4 5 5 6 6 8 8 7 6 6 5 6 6 6 6 5 5 7 7 7 7 6 5 5 5
6 6 6 6 5 4 4 3 3 3 3 3 4 6 6 3 3 3 3 3 3 5 5 5 5 6 6 6 6 6 6 6 6 5 6 7 8 8 7 6 6 6 6
6 6 6 6 5 4 3 2 3 3 3 4 5 6 6 4 3 2 2 3 3 4 4 4 4 5 5 5 6 6 5 6 6 6 6 7 8 8 8 7 7 7 7
7 7 6 7 6 6 4 3 3 3 4 4 4 5 6 5 4 3 3 3 3 4 5 5 5 4 3 4 5 5 5 5 5 6 5 6 7 8 7 7 8 8 8
7 7 6 7 6 6 5 4 4 4 5 3 4 5 6 7 6 4 3 3 3 5 6 6 5 5 4 4 4 4 4 4 5 5 5 5 5 6 6 7 7 8 8
7 7 6 6 7 6 5 4 3 4 4 3 5 6 6 7 7 5 3 3 4 5 4 4 4 4 4 3 3 3 3 3 4 4 4 4 4 4 5 6 7 7 7
8 8 7 7 6 5 4 3 4 4 3 4 5 5 5 6 7 5 3 3 5 4 3 3 3 3 3 3 3 3 3 3 3 4 4 4 4 4 4 5 6 6 6
8 8 7 6 6 5 4 3 3 2 2 2 3 4 5 6 7 6 4 4 4 4 3 3 3 3 2 2 3 3 2 2 3 3 2 3 3 4 4 4 4 4 5
7 7 7 6 6 5 4 3 2 2 1 1 2 4 5 6 7 6 4 3 3 3 3 3 3 3 2 2 3 3 3 3 3 2 2 2 3 3 4 3 3 3 3
8 7 7 6 6 5 4 3 3 3 2 2 1 3 5 6 6 5 4 3 3 3 3 3 3 2 1 2 3 2 2 3 3 3 2 2 2 3 3 3 3 3 2
8 8 7 6 6 4 4 3 3 3 3 2 2 1 1 4 5 5 4 4 3 3 3 2 3 4 3 1 2 3 3 2 1 3 3 3 2 2 2 2 2 2 2
8 7 6 7 6 5 5 5 5 4 2 1 1 1 1 2 3 4 4 4 3 3 3 2 3 3 4 2 1 1 2 4 3 0 3 3 3 2 1 1 2 2 3
7 7 7 6 6 5 5 6 6 4 2 1 1 2 1 1 1 2 4 3 3 2 2 2 2 3 3 3 2 2 2 2 3 3 0 2 3 2 2 1 1 2 3
6 7 7 7 5 5 6 6 6 6 4 4 2 2 1 0 0 0 2 2 2 2 2 2 2 2 2 2 2 2 3 3 3 3 3 1 1 2 2 1 1 1 2
Wind_Direction
231 188 96 80 75 70 70 75 75 74 75 80 82 82 83 85 87 88 90 88 88 86 84 82 83 87 89 86 88 91 100 106 103 104 109 113 115 116 116 120 118 110 115
158 142 99 87 84 84 79 79 80 78 77 81 83 83 82 83 85 86 91 91 89 87 87 86 85 84 83 80 77 76 90 108 105 103 104 110 114 112 116 121 119 117 118
136 134 108 92 87 85 83 80 79 79 78 81 83 84 82 82 83 84 92 94 92 90 88 88 88 85 82 78 71 72 86 102 104 98 98 97 107 113 116 120 119 119 117
132 125 111 101 93 89 86 85 82 80 80 82 86 87 85 83 81 79 88 95 94 93 91 90 87 85 83 78 73 71 79 86 94 91 88 94 103 110 115 119 119 118 118
123 123 116 107 99 96 93 92 88 84 81 83 88 87 86 82 79 79 88 95 97 96 93 89 86 83 83 80 74 69 72 82 86 81 81 90 100 112 114 119 120 119 118
133 135 131 116 105 101 101 101 95 89 84 84 89 89 87 83 78 84 91 96 97 96 94 91 88 84 82 82 79 72 68 77 77 75 75 82 95 112 117 116 118 119 118
143 146 137 125 116 109 104 101 97 92 89 87 89 89 86 82 82 89 92 96 94 91 90 88 85 84 81 82 83 77 73 79 79 74 73 79 98 112 114 114 116 119 118
149 152 144 133 127 119 113 110 104 99 99 96 92 90 88 84 84 89 92 94 93 89 85 83 83 84 83 81 82 82 81 85 85 79 72 80 102 107 109 108 108 109 109
142 142 141 141 135 129 124 120 117 113 108 101 94 91 89 86 85 90 90 88 86 82 80 79 80 80 81 79 76 78 79 82 81 79 82 81 98 104 103 104 103 100 100
135 138 144 144 135 131 127 128 126 120 116 107 99 97 93 87 84 88 89 87 84 81 79 80 75 77 83 79 73 75 72 69 66 64 67 86 94 100 99 98 98 96 96
138 145 146 151 153 150 146 138 129 117 114 110 102 96 92 83 80 83 88 88 84 80 75 72 71 74 76 73 73 72 66 69 65 60 66 87 95 97 99 99 96 98 97
159 167 161 162 165 165 157 144 135 117 110 111 108 100 96 88 84 86 85 82 78 69 63 65 63 65 65 65 67 65 68 69 65 62 75 85 92 95 96 98 98 95 97
168 165 168 169 168 164 157 149 140 129 123 118 121 119 111 98 84 78 72 63 61 63 59 58 57 59 67 74 75 73 75 72 70 64 69 81 86 92 96 92 92 91 93
147 155 163 166 163 164 156 150 150 146 137 125 124 128 123 112 98 92 82 74 68 71 70 65 65 65 67 70 78 79 74 75 71 67 73 82 82 84 90 91 91 93 91
144 146 149 148 147 152 137 147 131 135 134 131 121 125 126 121 113 102 95 88 84 82 82 75 73 66 62 65 75 83 80 75 72 68 68 78 79 80 86 89 86 89 87
152 151 148 142 144 137 133 133 135 140 131 117 115 123 125 128 124 115 98 81 79 85 87 84 80 74 63 66 64 71 76 76 72 70 69 73 75 74 77 84 85 84 81
163 154 149 148 140 132 129 130 130 135 128 119 114 114 122 129 127 121 107 93 93 99 96 85 77 75 70 65 61 62 71 76 75 71 73 70 67 70 74 84 85 88 83
159 153 149 142 135 132 132 132 124 127 125 122 116 114 117 126 124 113 108 104 106 101 95 90 83 81 69 64 57 51 59 69 73 78 76 70 69 68 71 79 82 88 90
159 153 145 138 138 137 132 124 124 129 125 122 113 114 117 119 121 117 115 111 107 95 91 101 89 99 93 75 69 61 52 52 51 75 73 70 74 75 74 73 80 84 84
156 150 151 145 144 137 122 103 92 89 91 104 107 113 116 118 117 117 115 112 108 98 91 99 105 93 105 108 85 61 39 36 38 51 63 71 72 73 73 72 74 74 74
147 147 155 151 155 144 136 131 130 135 125 91 98 110 115 119 123 125 120 113 110 118 127 126 120 103 97 109 85 49 22 27 37 25 36 53 52 63 71 74 82 73 60
158 157 159 161 162 157 158 161 158 149 142 124 95 97 112 122 123 127 128 128 126 119 113 122 129 130 141 131 122 110 38 7 8 19 21 39 30 62 69 69 83 86 81
159 164 160 163 158 160 151 122 99 73 56 49 59 68 90 123 125 127 133 131 134 134 141 148 152 146 164 197 148 141 141 186 308 349 12 17 11 32 44 67 83 97 100
172 166 158 159 158 155 140 133 134 134 141 185 175 150 53 101 119 131 137 136 132 135 146 164 148 150 152 173 203 135 152 152 148 359 346 353 4 18 14 58 76 92 110
164 159 159 155 154 148 142 142 139 132 150 145 129 130 122 71 113 133 140 133 133 144 155 156 136 146 158 169 171 144 113 105 119 138 209 328 353 345 351 24 85 98 115
153 153 155 153 155 157 154 154 152 150 148 136 140 159 177 232 333 57 144 142 150 154 163 168 149 147 166 164 158 155 158 154 161 151 173 203 290 316 343 357 63 110 132
Height
1523 1522 1520 1519 1518 1517 1516 1515 1515 1514 1514 1513 1513 1512 1512 1512 1512 1512 1512 1513 1513 1513 1513 1514 1514 1514 1514 1514 1514 1513 1512 1514 1516 1517 1518 1519 1519 1520 1521 1522 1522 1523 1523
1523 1522 1521 1519 1518 1517 1516 1515 1515 1514 1514 1513 1513 1513 1512 1512 1512 1512 1512 1512 1513 1513 1513 1514 1514 1514 1514 1514 1513 1511 1509 1511 1515 1517 1518 1519 1520 1520 1521 1522 1522 1523 1523
1523 1522 1521 1519 1518 1517 1516 1516 1515 1515 1514 1513 1513 1513 1513 1512 1512 1512 1512 1512 1513 1513 1514 1514 1514 1514 1514 1514 1513 1510 1508 1511 1515 1517 1518 1519 1520 1521 1521 1522 1522 1523 1523
1524 1523 1522 1520 1519 1517 1517 1516 1516 1515 1514 1514 1513 1513 1513 1513 1512 1512 1512 1512 1513 1513 1514 1514 1514 1514 1514 1514 1514 1513 1512 1513 1516 1517 1518 1519 1520 1520 1521 1522 1522 1522 1523
1525 1523 1522 1521 1519 1518 1517 1517 1516 1516 1515 1515 1514 1514 1513 1513 1512 1512 1512 1512 1513 1513 1514 1514 1515 1515 1515 1515 1515 1515 1515 1516 1517 1518 1518 1520 1520 1521 1521 1522 1522 1522 1523
1525 1524 1523 1521 1520 1519 1518 1518 1517 1517 1516 1515 1515 1514 1514 1513 1513 1512 1512 1513 1513 1514 1514 1515 1515 1515 1516 1516 1516 1516 1516 1517 1517 1518 1519 1520 1520 1521 1521 1521 1522 1522 1522
1526 1525 1524 1522 1521 1520 1519 1519 1518 1518 1517 1516 1516 1516 1515 1514 1513 1513 1513 1514 1514 1515 1515 1515 1516 1516 1516 1516 1517 1517 1517 1518 1518 1519 1519 1520 1520 1521 1521 1521 1521 1522 1522
1527 1526 1525 1524 1523 1522 1521 1520 1520 1519 1519 1518 1518 1517 1516 1515 1515 1514 1515 1515 1515 1515 1516 1516 1517 1517 1517 1517 1518 1518 1518 1518 1519 1519 1520 1520 1520 1521 1521 1521 1521 1522 1522
1528 1527 1526 1525 1524 1524 1523 1522 1521 1521 1520 1520 1519 1519 1518 1517 1516 1516 1516 1516 1516 1516 1517 1517 1518 1518 1518 1518 1518 1518 1519 1519 1519 1519 1520 1520 1520 1521 1521 1521 1521 1521 1522
1528 1528 1527 1527 1526 1525 1525 1524 1523 1523 1522 1522 1521 1521 1520 1519 1519 1518 1518 1518 1518 1518 1518 1519 1519 1519 1519 1519 1519 1519 1519 1519 1520 1520 1520 1520 1520 1520 1520 1521 1521 1521 1521
1529 1529 1528 1528 1527 1527 1526 1526 1525 1524 1524 1523 1523 1522 1522 1521 1521 1520 1520 1519 1519 1519 1520 1520 1520 1520 1520 1520 1520 1520 1520 1520 1520 1520 1520 1520 1520 1520 1520 1521 1521 1521 1521
1529 1529 1529 1529 1528 1528 1527 1527 1526 1526 1525 1525 1524 1524 1523 1523 1523 1522 1522 1521 1521 1521 1521 1521 1521 1521 1521 1521 1520 1520 1520 1520 1520 1521 1521 1520 1520 1520 1520 1520 1521 1521 1521
1529 1529 1529 1529 1529 1529 1528 1528 1528 1527 1527 1526 1526 1525 1525 1525 1524 1524 1523 1523 1523 1522 1522 1522 1522 1522 1522 1522 1521 1521 1521 1521 1521 1521 1521 1521 1521 1521 1521 1520 1520 1521 1521
1529 1529 1529 1530 1530 1529 1529 1529 1529 1528 1528 1527 1527 1526 1526 1526 1525 1525 1525 1525 1524 1524 1524 1523 1523 1523 1523 1522 1522 1522 1522 1522 1522 1522 1522 1522 1521 1521 1521 1521 1521 1521 1520
1529 1529 1530 1530 1530 1530 1530 1530 1530 1529 1529 1528 1528 1528 1527 1527 1526 1526 1526 1526 1526 1525 1525 1524 1524 1524 1523 1523 1523 1523 1522 1522 1522 1522 1522 1522 1522 1522 1521 1521 1521 1521 1520
1529 1529 1530 1530 1530 1530 1531 1530 1530 1530 1530 1529 1529 1528 1528 1528 1527 1527 1527 1527 1527 1526 1526 1525 1525 1525 1524 1524 1524 1524 1523 1523 1523 1523 1523 1522 1522 1522 1521 1521 1521 1521 1520
1529 1529 1530 1530 1530 1531 1531 1531 1531 1531 1530 1530 1530 1529 1529 1528 1528 1528 1528 1527 1527 1527 1527 1526 1526 1526 1525 1525 1525 1525 1524 1524 1524 1524 1523 1523 1522 1522 1521 1521 1521 1521 1521
1528 1529 1530 1530 1531 1531 1531 1531 1531 1531 1531 1531 1530 1530 1530 1529 1529 1529 1528 1528 1528 1528 1527 1527 1526 1526 1526 1526 1525 1525 1525 1525 1525 1525 1524 1523 1523 1522 1522 1522 1522 1521 1521
1528 1528 1529 1530 1530 1531 1531 1531 1531 1531 1531 1531 1531 1530 1530 1530 1530 1529 1529 1528 1528 1528 1527 1527 1527 1526 1526 1526 1526 1526 1526 1526 1525 1525 1525 1524 1523 1523 1522 1522 1522 1522 1521
1527 1528 1529 1529 1530 1531 1531 1531 1531 1531 1531 1531 1531 1531 1530 1530 1530 1529 1529 1529 1528 1528 1527 1527 1527 1527 1526 1526 1526 1526 1526 1527 1526 1526 1525 1525 1524 1523 1523 1523 1523 1523 1522
1526 1527 1528 1528 1529 1530 1531 1531 1531 1531 1531 1531 1531 1531 1531 1530 1530 1529 1529 1528 1528 1528 1527 1527 1526 1526 1526 1526 1526 1526 1527 1527 1527 1527 1526 1525 1525 1524 1524 1524 1523 1523 1522
1524 1526 1527 1528 1529 1529 1530 1530 1531 1531 1531 1531 1531 1531 1531 1530 1530 1529 1529 1528 1528 1527 1527 1526 1526 1525 1525 1526 1526 1526 1527 1528 1527 1527 1526 1526 1525 1525 1524 1524 1524 1523 1523
1523 1524 1526 1527 1528 1529 1529 1530 1530 1530 1531 1531 1531 1531 1530 1530 1529 1529 1528 1528 1527 1527 1526 1525 1525 1525 1525 1525 1526 1526 1526 1526 1527 1528 1527 1526 1526 1525 1525 1524 1524 1523 1523
1522 1523 1525 1526 1527 1528 1528 1529 1529 1529 1530 1530 1530 1530 1530 1529 1529 1528 1528 1527 1526 1526 1525 1524 1524 1524 1524 1524 1525 1525 1526 1526 1526 1527 1527 1527 1526 1526 1525 1525 1524 1524 1523
1520 1522 1523 1525 1526 1526 1527 1528 1528 1528 1529 1529 1529 1529 1529 1528 1528 1527 1527 1526 1526 1525 1525 1524 1523 1523 1524 1524 1524 1524 1525 1525 1525 1526 1526 1527 1527 1526 1526 1525 1525 1524 1524
1519 1521 1522 1523 1524 1525 1526 1527 1527 1527 1528 1528 1528 1528 1528 1527 1527 1527 1526 1526 1525 1524 1524 1523 1523 1523 1523 1523 1523 1524 1524 1524 1524 1525 1525 1525 1526 1526 1526 1525 1525 1525 1524